Regional Weather Roundup
Issued by NWS

Home | Current Version | Previous Version | Text Only | Print | Product List | Glossary Off
Versions: 1 2 3 4 5 6 7 8 9 10 11 12 13 14 15 16 17 18 19 20 21 22 23 24 25 26 27 28 29 30 31 32 33 34 35 36 37 38 39 40 41 42 43 44 45 46 47 48 49 50

868
ASUS44 KJAN 260303
RWRMS

MISSISSIPPI HOURLY WEATHER ROUNDUP
NATIONAL WEATHER SERVICE JACKSON MS
900 PM CST TUE NOV 25 2014

NOTE: "FAIR: INDICATES FEW OR NO CLOUDS BELOW 12,000 FEET WITH NO
SIGNIFICANT WEATHER AND/OR OBSTRUCTIONS TO VISIBILITY.

MSZ001>002-007>008-010>013-018>021-025>028-034>036-260400-
NORTHWEST MISSISSIPPI

CITY           SKY/WX    TMP DP  RH WIND       PRES   REMARKS
CLARKSDALE     FAIR      37  32  81 CALM      30.23S
CLEVELAND      FAIR      37  32  83 CALM      30.23R
GREENWOOD      CLEAR     33  28  81 CALM      30.23R
GREENVILLE     CLEAR     37  33  85 CALM      30.22S
GRENADA        FAIR      32  30  93 CALM      30.23S
OLIVE BRANCH   CLEAR     34  32  93 CALM      30.21S
OXFORD         FAIR      28  27  93 CALM      30.23R
TUNICA         CLEAR     36  30  80 CALM      30.23S
$$

MSZ003>006-009-014>017-022>024-029>033-037>039-260400-
NORTHEAST MISSISSIPPI

CITY           SKY/WX    TMP DP  RH WIND       PRES   REMARKS
COLUMBUS AFB   CLOUDY    42  28  58 NW3       30.19F
CORINTH        FAIR      34  28  80 W5        30.19S WCI  30
GOLDN TRIANGLE CLOUDY    41  27  56 NW3       30.18F
STARKVILLE     FAIR      37  32  81 CALM      30.19F
TUPELO         CLEAR     40  25  55 NW5       30.20R
$$

MSZ040-058-260400-
CENTRAL MISSISSIPPI

CITY           SKY/WX    TMP DP  RH WIND       PRES   REMARKS
JACKSON INTL   CLEAR     36  28  73 CALM      30.23R
JACKSON HAWKNS CLEAR     40  28  62 NW5       30.23R
MERIDIAN KEY   CLOUDY    44  30  57 W5        30.21R
MERIDIAN NAS   CLOUDY    45  30  55 NW5       30.19F
RAYMOND        FAIR      34  28  80 MISG      30.24R
VICKSBURG      CLEAR     30  28  92 CALM      30.25S
$$

MSZ059>079-260400-
SOUTH MISSISSIPPI

CITY           SKY/WX    TMP DP  RH WIND       PRES   REMARKS
BROOKHAVEN     FAIR      39  32  75 NW3       30.24S
COLUMBIA       FAIR      41  34  75 MISG        N/A
HATTIESBURG    CLOUDY    48  31  51 NW6       30.21R
MCCOMB         CLEAR     39  30  70 NW6       30.22R WCI  35
NATCHEZ        CLEAR     36  30  80 CALM      30.25S
PINE BELT      CLOUDY    45  27  49 NW5       30.21R
$$

MSZ080>082-260400-
COASTAL MISSISSIPPI

CITY           SKY/WX    TMP DP  RH WIND       PRES   REMARKS
BAY ST LOUIS   PTCLDY    48  30  49 NW6       30.19F
BILOXI         CLOUDY    51  31  47 N12       30.17F
PASCAGOULA     CLOUDY    51  34  52 NW10      30.16F
GULFPORT       CLOUDY    50  31  48 NW10      30.17F
$$



USA.gov is the U.S. government's official web portal to all federal, state and local government web resources and services.